DERPL EDGS-EDGS

Flight info

Callsign DERPL
Flight time 0h 46m
Altitude 5000
Route COL
Aircraft C172/L-SFG/C

Departure

Time 2026-04-28 18:28
Airport Siegerland Airport (EDGS)

Arrival

Time 2026-04-28 19:14
Airport Siegerland Airport (EDGS)
Time Latitude Longitude Altitude Speed Heading
2026-04-28 17:50 50.70772 8.07711 1958 ft 0 kts 213°
2026-04-28 18:22 50.70770 8.07718 1774 ft 2 kts 53°
2026-04-28 18:23 50.70765 8.07758 1958 ft 7 kts 120°
2026-04-28 18:23 50.70781 8.07811 1957 ft 5 kts 39°
2026-04-28 18:23 50.70800 8.07837 1957 ft 3 kts 41°
2026-04-28 18:23 50.70802 8.07839 1957 ft 0 kts 38°
2026-04-28 18:24 50.70803 8.07840 1957 ft 2 kts 40°
2026-04-28 18:24 50.70820 8.07863 1957 ft 6 kts 38°
2026-04-28 18:24 50.70838 8.07884 1956 ft 0 kts 37°
2026-04-28 18:26 50.70838 8.07885 1956 ft 1 kts 39°
2026-04-28 18:26 50.70848 8.07897 1956 ft 4 kts 37°
2026-04-28 18:26 50.70891 8.07951 1955 ft 10 kts 47°
2026-04-28 18:27 50.70904 8.08024 1956 ft 7 kts 128°
2026-04-28 18:27 50.70741 8.08352 1955 ft 64 kts 128°
2026-04-28 18:27 50.70442 8.08900 2149 ft 66 kts 116°
2026-04-28 18:27 50.70204 8.09545 2350 ft 72 kts 111°
2026-04-28 18:28 50.69958 8.10237 2595 ft 75 kts 113°
2026-04-28 18:28 50.69685 8.11007 2756 ft 87 kts 116°
2026-04-28 18:28 50.69361 8.11888 2880 ft 96 kts 117°
2026-04-28 18:28 50.68965 8.12797 2960 ft 105 kts 122°
2026-04-28 18:29 50.68371 8.13405 3013 ft 111 kts 177°
2026-04-28 18:29 50.67627 8.12948 3010 ft 120 kts 204°
2026-04-28 18:29 50.66938 8.12222 3103 ft 117 kts 230°
2026-04-28 18:29 50.66842 8.11013 3141 ft 116 kts 295°
2026-04-28 18:30 50.67331 8.09960 3054 ft 121 kts 320°
2026-04-28 18:30 50.67732 8.09356 3059 ft 119 kts 320°
2026-04-28 18:30 50.68505 8.08084 3041 ft 121 kts 315°
2026-04-28 18:30 50.69040 8.07065 3035 ft 122 kts 312°
2026-04-28 18:31 50.69557 8.06006 3067 ft 121 kts 312°
2026-04-28 18:31 50.70098 8.04980 3079 ft 123 kts 314°
2026-04-28 18:31 50.70640 8.03951 3122 ft 121 kts 313°
2026-04-28 18:31 50.71187 8.02932 3143 ft 122 kts 320°
2026-04-28 18:32 50.71908 8.02369 3192 ft 116 kts 352°
2026-04-28 18:32 50.72721 8.02198 3177 ft 117 kts
2026-04-28 18:32 50.73519 8.02243 3190 ft 115 kts
2026-04-28 18:32 50.74332 8.02256 3220 ft 117 kts
2026-04-28 18:33 50.75134 8.02227 3281 ft 115 kts
2026-04-28 18:33 50.75934 8.02131 3285 ft 117 kts 358°
2026-04-28 18:33 50.76734 8.01939 3318 ft 117 kts 352°
2026-04-28 18:33 50.77547 8.01732 3359 ft 118 kts 357°
2026-04-28 18:34 50.78341 8.01549 3525 ft 113 kts 355°
2026-04-28 18:34 50.79118 8.01322 3702 ft 113 kts 351°
2026-04-28 18:34 50.79882 8.01020 3876 ft 113 kts 346°
2026-04-28 18:34 50.80625 8.00632 3998 ft 115 kts 342°
2026-04-28 18:35 50.81373 8.00169 4100 ft 116 kts 343°
2026-04-28 18:35 50.82131 7.99673 4217 ft 116 kts 340°
2026-04-28 18:35 50.82852 7.99157 4352 ft 116 kts 338°
2026-04-28 18:35 50.83573 7.98573 4444 ft 116 kts 334°
2026-04-28 18:36 50.84278 7.97950 4437 ft 117 kts 335°
2026-04-28 18:36 50.85017 7.97410 4439 ft 116 kts 341°
2026-04-28 18:36 50.85777 7.96995 4445 ft 116 kts 346°
2026-04-28 18:36 50.86560 7.96685 4457 ft 117 kts 351°
2026-04-28 18:37 50.87360 7.96408 4459 ft 117 kts 352°
2026-04-28 18:37 50.88150 7.96161 4468 ft 117 kts 353°
2026-04-28 18:37 50.88960 7.95921 4493 ft 117 kts 352°
2026-04-28 18:37 50.89761 7.95698 4494 ft 117 kts 355°
2026-04-28 18:38 50.90569 7.95524 4542 ft 117 kts 356°
2026-04-28 18:38 50.91381 7.95346 4571 ft 119 kts 355°
2026-04-28 18:38 50.92198 7.95152 4594 ft 119 kts 355°
2026-04-28 18:38 50.93021 7.95001 4621 ft 118 kts 357°
2026-04-28 18:39 50.93843 7.94850 4606 ft 120 kts 355°
2026-04-28 18:39 50.94669 7.94662 4617 ft 119 kts 353°
2026-04-28 18:39 50.95491 7.94458 4620 ft 121 kts 354°
2026-04-28 18:39 50.96327 7.94246 4625 ft 122 kts 354°
2026-04-28 18:40 50.97176 7.94051 4629 ft 123 kts 356°
2026-04-28 18:40 50.98043 7.93901 4562 ft 126 kts 357°
2026-04-28 18:40 50.98914 7.93753 4531 ft 125 kts 358°
2026-04-28 18:40 50.99779 7.93659 4518 ft 124 kts 360°
2026-04-28 18:41 51.00644 7.93541 4503 ft 125 kts 358°
2026-04-28 18:41 51.01501 7.93345 4474 ft 126 kts 354°
2026-04-28 18:41 51.02366 7.93072 4464 ft 128 kts 351°
2026-04-28 18:41 51.03227 7.92768 4441 ft 126 kts 351°
2026-04-28 18:42 51.04079 7.92444 4414 ft 125 kts 348°
2026-04-28 18:42 51.04934 7.92111 4412 ft 127 kts 350°
2026-04-28 18:42 51.05795 7.91780 4397 ft 128 kts 351°
2026-04-28 18:42 51.06662 7.91488 4382 ft 127 kts 352°
2026-04-28 18:43 51.07519 7.91223 4411 ft 125 kts 353°
2026-04-28 18:43 51.08389 7.90972 4379 ft 127 kts 354°
2026-04-28 18:43 51.09239 7.90775 4412 ft 122 kts 356°
2026-04-28 18:43 51.10080 7.90607 4415 ft 120 kts 357°
2026-04-28 18:44 51.10913 7.90474 4415 ft 122 kts 358°
2026-04-28 18:44 51.12607 7.90302 4434 ft 120 kts
2026-04-28 18:44 51.13442 7.90257 4487 ft 120 kts
2026-04-28 18:45 51.14279 7.90155 4495 ft 121 kts 358°
2026-04-28 18:45 51.15112 7.89985 4515 ft 121 kts 354°
2026-04-28 18:45 51.15934 7.89691 4541 ft 121 kts 348°
2026-04-28 18:45 51.16747 7.89295 4522 ft 123 kts 344°
2026-04-28 18:46 51.17555 7.88847 4534 ft 122 kts 342°
2026-04-28 18:46 51.18337 7.88453 4475 ft 113 kts 348°
2026-04-28 18:46 51.19095 7.88124 4347 ft 116 kts 348°
2026-04-28 18:46 51.19878 7.87799 4285 ft 116 kts 349°
2026-04-28 18:47 51.20640 7.87467 4371 ft 111 kts 343°
2026-04-28 18:47 51.21310 7.86770 4401 ft 118 kts 316°
2026-04-28 18:47 51.21745 7.85686 4506 ft 114 kts 293°
2026-04-28 18:47 51.21824 7.84437 4474 ft 119 kts 252°
2026-04-28 18:48 51.21299 7.83532 4557 ft 109 kts 194°
2026-04-28 18:48 51.20531 7.83417 4517 ft 114 kts 178°
2026-04-28 18:48 51.19748 7.83422 4576 ft 111 kts 175°
2026-04-28 18:48 51.18987 7.83493 4603 ft 111 kts 172°
2026-04-28 18:49 51.18202 7.83575 4549 ft 116 kts 173°
2026-04-28 18:49 51.17929 7.83601 4524 ft 117 kts 173°
2026-04-28 18:49 51.16569 7.83628 4528 ft 117 kts 175°
2026-04-28 18:49 51.15757 7.83686 4539 ft 117 kts 174°
2026-04-28 18:50 51.14951 7.83785 4531 ft 116 kts 171°
2026-04-28 18:50 51.14147 7.83956 4500 ft 117 kts 167°
2026-04-28 18:50 51.13349 7.84208 4498 ft 116 kts 163°
2026-04-28 18:50 51.12573 7.84557 4515 ft 116 kts 159°
2026-04-28 18:51 51.11806 7.84905 4540 ft 115 kts 168°
2026-04-28 18:51 51.10992 7.84963 4468 ft 119 kts 182°
2026-04-28 18:51 51.10175 7.84728 4483 ft 119 kts 188°
2026-04-28 18:51 51.09370 7.84447 4500 ft 118 kts 190°
2026-04-28 18:52 51.08578 7.84081 4464 ft 119 kts 191°
2026-04-28 18:52 51.07774 7.83738 4475 ft 119 kts 191°
2026-04-28 18:52 51.06979 7.83390 4463 ft 119 kts 191°
2026-04-28 18:52 51.06180 7.83069 4458 ft 119 kts 189°
2026-04-28 18:53 51.05371 7.82791 4446 ft 119 kts 188°
2026-04-28 18:53 51.04556 7.82572 4444 ft 118 kts 184°
2026-04-28 18:53 51.03739 7.82445 4429 ft 118 kts 179°
2026-04-28 18:53 51.02923 7.82421 4440 ft 117 kts 176°
2026-04-28 18:54 51.02112 7.82480 4441 ft 117 kts 173°
2026-04-28 18:54 51.01303 7.82577 4441 ft 117 kts 172°
2026-04-28 18:54 51.00492 7.82654 4431 ft 117 kts 175°
2026-04-28 18:54 50.99678 7.82621 4430 ft 117 kts 179°
2026-04-28 18:55 50.98864 7.82560 4457 ft 115 kts 180°
2026-04-28 18:55 50.98343 7.82499 4479 ft 114 kts 181°
2026-04-28 18:55 50.97284 7.82336 4499 ft 115 kts 182°
2026-04-28 18:55 50.96499 7.82218 4561 ft 112 kts 180°
2026-04-28 18:56 50.95716 7.82166 4570 ft 113 kts 178°
2026-04-28 18:56 50.94931 7.82129 4582 ft 113 kts 181°
2026-04-28 18:56 50.94129 7.82016 4565 ft 116 kts 182°
2026-04-28 18:56 50.93331 7.81931 4569 ft 115 kts 180°
2026-04-28 18:57 50.92527 7.81921 4567 ft 115 kts 174°
2026-04-28 18:57 50.91739 7.82061 4566 ft 114 kts 163°
2026-04-28 18:57 50.91030 7.82608 4565 ft 113 kts 140°
2026-04-28 18:57 50.90425 7.83368 4617 ft 111 kts 139°
2026-04-28 18:58 50.89840 7.84125 4726 ft 110 kts 138°
2026-04-28 18:58 50.89263 7.84924 4876 ft 109 kts 136°
2026-04-28 18:58 50.88711 7.85742 5013 ft 109 kts 133°
2026-04-28 18:58 50.88364 7.86319 5118 ft 109 kts 131°
2026-04-28 18:59 50.87849 7.87182 5285 ft 108 kts 133°
2026-04-28 18:59 50.87318 7.88026 5424 ft 108 kts 134°
2026-04-28 18:59 50.86799 7.88868 5594 ft 106 kts 131°
2026-04-28 18:59 50.86287 7.89730 5702 ft 110 kts 131°
2026-04-28 19:00 50.85753 7.90638 5676 ft 116 kts 133°
2026-04-28 19:00 50.85149 7.91484 5694 ft 115 kts 140°
2026-04-28 19:00 50.84495 7.92205 5721 ft 114 kts 149°
2026-04-28 19:00 50.83794 7.92797 5744 ft 115 kts 152°
2026-04-28 19:01 50.83066 7.93331 5750 ft 115 kts 158°
2026-04-28 19:01 50.82309 7.93724 5780 ft 115 kts 164°
2026-04-28 19:01 50.81513 7.94015 5743 ft 119 kts 167°
2026-04-28 19:01 50.80712 7.94267 5776 ft 117 kts 167°
2026-04-28 19:02 50.79910 7.94539 5759 ft 119 kts 166°
2026-04-28 19:02 50.79110 7.94840 5772 ft 118 kts 165°
2026-04-28 19:02 50.78307 7.95172 5739 ft 121 kts 163°
2026-04-28 19:02 50.77504 7.95528 5750 ft 119 kts 164°
2026-04-28 19:03 50.76710 7.95842 5766 ft 118 kts 165°
2026-04-28 19:03 50.75903 7.96170 5750 ft 120 kts 165°
2026-04-28 19:03 50.75100 7.96466 5775 ft 118 kts 166°
2026-04-28 19:03 50.74304 7.96720 5775 ft 118 kts 168°
2026-04-28 19:04 50.73490 7.96937 5766 ft 119 kts 170°
2026-04-28 19:04 50.72680 7.97137 5791 ft 118 kts 169°
2026-04-28 19:04 50.71857 7.97346 5750 ft 120 kts 169°
2026-04-28 19:04 50.71044 7.97528 5781 ft 118 kts 169°
2026-04-28 19:05 50.70228 7.97711 5757 ft 119 kts 165°
2026-04-28 19:05 50.69435 7.98017 5748 ft 116 kts 160°
2026-04-28 19:05 50.68675 7.98446 5675 ft 114 kts 150°
2026-04-28 19:05 50.68038 7.99175 5521 ft 115 kts 129°
2026-04-28 19:06 50.67600 8.00218 5267 ft 112 kts 113°
2026-04-28 19:06 50.67429 8.01428 5005 ft 113 kts 92°
2026-04-28 19:06 50.67475 8.02623 4871 ft 104 kts 84°
2026-04-28 19:06 50.67558 8.03755 4574 ft 103 kts 84°
2026-04-28 19:07 50.67535 8.04852 4271 ft 98 kts 99°
2026-04-28 19:07 50.67347 8.05907 3928 ft 101 kts 107°
2026-04-28 19:07 50.67021 8.06882 3604 ft 103 kts 120°
2026-04-28 19:07 50.66651 8.07801 3406 ft 97 kts 115°
2026-04-28 19:08 50.66321 8.08752 3234 ft 98 kts 112°
2026-04-28 19:08 50.66099 8.09736 3078 ft 91 kts 100°
2026-04-28 19:08 50.66148 8.10657 3012 ft 82 kts 64°
2026-04-28 19:08 50.66642 8.11114 2985 ft 87 kts 18°
2026-04-28 19:09 50.67264 8.11238 2888 ft 93 kts 14°
2026-04-28 19:09 50.67844 8.10842 2910 ft 101 kts 321°
2026-04-28 19:09 50.68246 8.09881 2823 ft 106 kts 307°
2026-04-28 19:09 50.68620 8.08890 2850 ft 104 kts 308°
2026-04-28 19:10 50.68980 8.07891 2843 ft 107 kts 307°
2026-04-28 19:10 50.69367 8.06948 2879 ft 102 kts 311°
2026-04-28 19:10 50.69796 8.06035 2810 ft 104 kts 320°
2026-04-28 19:10 50.70263 8.05163 2790 ft 101 kts 319°
2026-04-28 19:11 50.70687 8.04347 2875 ft 97 kts 318°
2026-04-28 19:11 50.71107 8.03541 2924 ft 95 kts 320°
2026-04-28 19:11 50.71563 8.03062 2978 ft 65 kts
2026-04-28 19:11 50.72033 8.03118 2753 ft 71 kts 28°
2026-04-28 19:12 50.72459 8.03335 2554 ft 58 kts 46°
2026-04-28 19:12 50.72741 8.03747 2450 ft 51 kts 68°
2026-04-28 19:12 50.72785 8.04288 2423 ft 56 kts 106°
2026-04-28 19:12 50.72520 8.04782 2394 ft 60 kts 124°
2026-04-28 19:13 50.72255 8.05291 2376 ft 58 kts 119°
2026-04-28 19:13 50.72006 8.05788 2285 ft 58 kts 119°
2026-04-28 19:13 50.71763 8.06281 2174 ft 56 kts 118°
2026-04-28 19:13 50.71521 8.06769 2056 ft 56 kts 117°
2026-04-28 19:14 50.71284 8.07252 1993 ft 56 kts 118°
2026-04-28 19:14 50.71065 8.07691 1958 ft 41 kts 117°
2026-04-28 19:14 50.70934 8.07970 1956 ft 14 kts 133°
2026-04-28 19:14 50.70858 8.07912 1956 ft 15 kts 218°
2026-04-28 19:15 50.70784 8.07821 1957 ft 14 kts 214°
2026-04-28 19:15 50.70780 8.07756 1958 ft 2 kts 20°
2026-04-28 19:15 50.70788 8.07761 1958 ft 0 kts 355°